Hibbing, MN

9:36 PM CDT on August 17, 2017 (GMT -0500)
Chisholm-hibbing

Weather History for KHIB - September, 2013

Change the Weather History Date:

Thursday, September 12, 2013

  Actual Average Record
Temperature  
Mean Temperature 52 °F -  
Max Temperature 64 °F 66 °F 83 °F (1969)
Min Temperature 39 °F 42 °F 26 °F (2007)
Degree Days  
Heating Degree Days 14    
Growing Degree Days 2 (Base 50)    
Moisture  
Dew Point 44 °F    
Average Humidity 83    
Maximum Humidity 100    
Minimum Humidity 45    
Precipitation  
Precipitation 0.01 in - - ()
Sea Level Pressure  
Sea Level Pressure 30.17 in    
Wind  
Wind Speed 3 mph (NNW)    
Max Wind Speed 20 mph    
Max Gust Speed 28 mph    
Visibility 6 miles    
Events Fog    
Averages and records for this station are not official NWS values.
T = Trace of Precipitation, MM = Missing Value Source: NWS Daily Summary

Daily Weather History Graph

Daily Weather History Graph

Search for Another Location

Airport or City:

Trip Planner

Search our weather history database for the weather conditions in past years. The results will help you decide how hot, cold, wet, or windy it might be!

Date:

Astronomy

Sep. 12, 2013 Rise Set
Actual Time 6:45 AM CDT 7:28 PM CDT
Civil Twilight 6:14 AM CDT 7:59 PM CDT
Nautical Twilight 5:37 AM CDT 8:36 PM CDT
Astronomical Twilight 4:58 AM CDT 9:15 PM CDT
Moon 2:40 PM CDT (9/12) 11:58 PM CDT (9/12)
Length of Visible Light 13h 45m
Length of Day
12h 43m
Waxing Crescent, 50% of the Moon is Illuminated
Sep 12
Waxing Crescent
Sep 12
First Quarter
Sep 19
Full
Sep 26
Last Quarter
Oct 4
New

Hourly Weather History & Observations

Time (CDT) Temp. Windchill Dew Point Humidity Pressure Visibility Wind Dir Wind Speed Gust Speed Precip Events Conditions
12:49 AM 48.2 °F - 46.4 °F 93% 30.11 in 1.8 mi Calm Calm - N/A   Clear
12:53 AM 48.0 °F - 46.0 °F 93% 30.12 in 1.2 mi North 3.5 mph - N/A   Clear
12:59 AM 48.2 °F - 46.4 °F 93% 30.11 in 3.0 mi North 3.5 mph - N/A   Clear
1:53 AM 48.0 °F - 46.9 °F 96% 30.12 in 5.0 mi North 3.5 mph - N/A   Clear
2:53 AM 48.0 °F - 46.9 °F 96% 30.12 in 10.0 mi NW 3.5 mph - N/A   Clear
3:06 AM 44.6 °F - 44.6 °F 100% 30.11 in 1.5 mi Calm Calm - N/A   Clear
3:14 AM 48.2 °F - 46.4 °F 93% 30.11 in 0.5 mi Calm Calm - N/A Fog Fog
3:19 AM 48.2 °F - 46.4 °F 93% 30.11 in 2.0 mi Calm Calm - N/A   Clear
3:26 AM 48.2 °F - 46.4 °F 93% 30.11 in 10.0 mi Calm Calm - N/A   Clear
3:33 AM 44.6 °F - 42.8 °F 93% 30.11 in 1.8 mi Calm Calm - N/A   Clear
3:40 AM 42.8 °F - 42.8 °F 100% 30.11 in 0.2 mi Calm Calm - N/A Fog Fog
3:53 AM 46.9 °F - 46.0 °F 97% 30.12 in 1.2 mi Calm Calm - N/A   Clear
4:05 AM 44.6 °F - 42.8 °F 93% 30.11 in 0.5 mi Calm Calm - N/A Fog Fog
4:11 AM 42.8 °F - 41.0 °F 93% 30.11 in 2.5 mi Calm Calm - N/A   Clear
4:19 AM 42.8 °F - 41.0 °F 93% 30.11 in 0.8 mi Calm Calm - N/A   Clear
4:25 AM 42.8 °F - 41.0 °F 93% 30.12 in 0.2 mi Calm Calm - N/A Fog Fog
4:31 AM 42.8 °F - 41.0 °F 93% 30.12 in 0.5 mi Calm Calm - N/A Fog Fog
4:53 AM 42.1 °F - 41.0 °F 96% 30.15 in 0.5 mi Calm Calm - N/A Fog Fog
4:57 AM 42.8 °F - 41.0 °F 93% 30.13 in 0.2 mi Calm Calm - N/A Fog Fog
5:08 AM 44.6 °F - 42.8 °F 93% 30.13 in 0.2 mi Calm Calm - N/A Fog Fog
5:17 AM 44.6 °F - 42.8 °F 93% 30.14 in 0.5 mi Calm Calm - 0.01 in Fog Fog
5:28 AM 46.4 °F 44.3 °F 44.6 °F 93% 30.14 in 2.0 mi NW 4.6 mph - 0.01 in   Overcast
5:35 AM 48.2 °F - 46.4 °F 93% 30.14 in 10.0 mi NW 4.6 mph - 0.01 in   Mostly Cloudy
5:43 AM 46.4 °F 44.3 °F 44.6 °F 93% 30.14 in 6.0 mi NW 4.6 mph - 0.01 in   Scattered Clouds
5:53 AM 48.0 °F - 46.0 °F 93% 30.16 in 7.0 mi NW 5.8 mph - 0.01 in   Mostly Cloudy
6:03 AM 48.2 °F - 48.2 °F 100% 30.15 in 10.0 mi NNW 8.1 mph - N/A   Mostly Cloudy
6:53 AM 52.0 °F - 50.0 °F 93% 30.19 in 10.0 mi North 12.7 mph - N/A   Overcast
7:53 AM 53.1 °F - 50.0 °F 89% 30.20 in 10.0 mi North 6.9 mph - N/A   Overcast
8:53 AM 55.0 °F - 48.9 °F 80% 30.19 in 10.0 mi NNW 6.9 mph - N/A   Clear
9:53 AM 57.9 °F - 48.0 °F 70% 30.22 in 10.0 mi North 8.1 mph - N/A   Partly Cloudy
10:53 AM 60.1 °F - 46.9 °F 62% 30.23 in 10.0 mi North 12.7 mph - N/A   Overcast
11:25 AM 60.8 °F - 46.4 °F 59% 30.22 in 10.0 mi NNW 16.1 mph 25.3 mph N/A   Overcast
11:53 AM 60.1 °F - 46.0 °F 60% 30.24 in 10.0 mi North 16.1 mph - N/A   Mostly Cloudy
12:53 PM 63.0 °F - 46.9 °F 56% 30.23 in 10.0 mi North 12.7 mph 20.7 mph N/A   Scattered Clouds
1:53 PM 64.0 °F - 46.0 °F 52% 30.24 in 10.0 mi North 12.7 mph 23.0 mph N/A   Partly Cloudy
2:53 PM 64.0 °F - 43.0 °F 46% 30.24 in 10.0 mi NNW 15.0 mph 27.6 mph N/A   Clear
3:53 PM 64.0 °F - 42.1 °F 45% 30.23 in 10.0 mi NNW 19.6 mph 26.5 mph N/A   Clear
4:53 PM 64.0 °F - 42.1 °F 45% 30.24 in 10.0 mi NNW 15.0 mph - N/A   Clear
5:53 PM 63.0 °F - 42.1 °F 46% 30.24 in 10.0 mi North 11.5 mph - N/A   Clear
6:53 PM 60.1 °F - 44.1 °F 55% 30.24 in 10.0 mi North 5.8 mph - N/A   Clear
7:53 PM 55.0 °F - 43.0 °F 64% 30.25 in 10.0 mi North 3.5 mph - N/A   Clear
8:53 PM 46.0 °F 44.8 °F 42.1 °F 86% 30.27 in 10.0 mi NW 3.5 mph - N/A   Clear
9:53 PM 42.1 °F - 39.9 °F 92% 30.27 in 10.0 mi Calm Calm - N/A   Clear
10:53 PM 41.0 °F - 39.0 °F 93% 30.28 in 10.0 mi Calm Calm - N/A   Clear
11:31 PM 39.2 °F 35.9 °F 37.4 °F 93% 30.25 in 1.8 mi NW 4.6 mph - N/A   Clear
11:45 PM 39.2 °F 37.0 °F 37.4 °F 93% 30.26 in 2.0 mi NW 3.5 mph - N/A   Clear
11:53 PM 39.9 °F - 37.9 °F 93% 30.28 in 1.2 mi Calm Calm - N/A   Clear